Location: Unspecified
(51.0950°N, 12.9690°E)
Time: 15:27:18
(UTC+00:00)

Cosmos 2333 Rocket - Pass Details

Date: 28 October 2021
Orbit: 837 x 864 km, 70.8° (Epoch: 27 November)

Event Time Altitude Azimuth Distance (km) Brightness Sun altitude
Rises 19:17:23 0° 237° (WSW) 3,400 5.8 -32.9°
Reaches altitude 10° 19:20:00 10° 246° (WSW) 2,472 5.1 -33.2°
Maximum altitude 19:25:15 37° 313° (NW) 1,302 3.5 -34.0°
Enters shadow 19:26:46 32° 346° (NNW) 1,439 3.6 -34.2°
